www.pogodaiklimat.ru
ПОГОДА в Вамене
Время
(UTC), дата
15 23.03
18 23.03
00 24.03
03 24.03
06 24.03
09 24.03
12 24.03
15 24.03
18 24.03
00 25.03
03 25.03
06 25.03
09 25.03
12 25.03
15 25.03
18 25.03
00 26.03
03 26.03
06 26.03
09 26.03
12 26.03
15 26.03
18 26.03
00 27.03
03 27.03
06 27.03
09 27.03
12 27.03
15 27.03
18 27.03
00 28.03
03 28.03
06 28.03
09 28.03
12 28.03
15 28.03
18 28.03
00 29.03
03 29.03
06 29.03
09 29.03
12 29.03
15 29.03
18 29.03
00 30.03
03 30.03
06 30.03
09 30.03
12 30.03
Ветер
(напр.,м/с)
Видим. Явления Облачность Т
(С)
Тd
(С)
f
(%)
Тe
(С)
Тes
(С)
Комфортность P
(гПа)
Po
(гПа)
Тmin
(С)
Tmax
(С)
R
(мм)
R24
(мм)
S
(см)
Ю 2 2000 м дождь 10/8 60 м
[Frnb As op Cs]
+17.4 +17.4 100 +18 +18 1020.5 835.4 7
Ю 2 2000 м дождь 10/8 60 м
[Frnb As op Cs]
+16.5 +16.5 100 +17 +17 1020.1 835.0 13
СЗ 2 6000 м 10/8 240 м
[Cu Sc As op Cs]
+19.1 +16.6 85 +21 +23 комфорт 1022.6 837.1 +15.9 0.0
В 2 8000 м слаб. морось {дождь} 10/8 450 м
[Cu Sc Ac As Cs]
+21.1 +17.5 80 +25 +27 комфорт 1019.7 834.7 0.2
ЮВ 2 6000 м слаб. морось {дождь} 10/8 360 м
[Cu Sc As op Cs]
+20.9 +17.2 79 +26 +27 душно 1017.5 832.9 1
ЮВ 2 8000 м 9/6 420 м
[Cu Sc Ac lent Ci ing]
+19.9 +17.4 86 +23 +23 комфорт 1018.5 833.7
Ю 4 7000 м 9/6 400 м
[Cu Sc Ac lent Ci ing]
+17.7 +17.1 96 +18 +18 1020.9 835.7 +21.9
ЮВ 2 4000 м дымка 9/6 360 м
[Cu Sc As op Cs]
+17.6 +16.6 94 +18 +18 1020.9 835.7
ЮВ 1 2000 м дымка 10/8 270 м
[Cu Sc As op Cs]
+17.2 +16.9 98 +19 +19 1019.6 834.6
СВ 2 8000 м 8/6 450 м
[Cu Sc As trans Cs]
+22.0 +17.2 74 +26 +30 душно 1021.0 835.8 +17.0 1
ЮВ 5 10 км 10/6 600 м
[Cu Sc As trans Cs]
+25.4 +18.5 66 +30 +33 душно 1018.1 833.4
ЮВ 4 8000 м слаб. дождь {морось} 10/9 540 м
[Cu Sc As op Cs]
+22.7 +17.9 74 +28 +28 душно 1016.0 831.7
ЮВ 3 3000 м дождь 10/9 450 м
[Cu Sc As op Cs]
+18.1 +17.9 99 +18 +18 1018.7 833.9 2
ЮВ 3 1000 м слаб. морось {дождь} 10/8 60 м
[Frnb As op Cs]
+17.5 +17.5 100 +17 +17 1021.8 836.3 +27.1 3
штиль 0 300 м сильн. дождь 10/9 30 м
[Frnb As op]
+17.0 +17.0 100 +17 +17 1021.8 836.8 12
С 2 1000 м дождь 10/9 30 м
[Frnb As op]
+16.6 +16.6 100 +17 +17 1019.8 834.8 18
С 2 9000 м 9/6 400 м
[Cu Sc Ac trans Ci fib]
+19.6 +17.0 85 +23 +26 комфорт 1023.1 837.5 +16.0 35
С 1 10 км 9/6 500 м
[Cu Sc Ac lent Ci ing]
+25.0 +17.3 62 +29 +35 душно 1020.1 835.0
Ю 3 10 км 9/6 600 м
[Cu Sc Ac lent Cs]
+26.3 +15.8 52 +29 +31 жарко 1016.8 832.3
ЮВ 8 10 км осадки на расстоянии 10/6 600 м
[Cu Sc As op Cs]
+20.6 +16.7 78 +23 +23 комфорт 1017.6 833.0 0.0
Ю 3 3000 м слаб. морось 10/8 300 м
[Frnb As op Cs]
+18.7 +17.7 94 +20 +20 1021.2 835.9 +27.0 0.3
З 1 3000 м слаб. дождь 10/9 300 м
[Frnb As op Cs]
+18.3 +18.3 100 +20 +20 1021.8 836.4 2
З 1 3000 м дымка 10/9 300 м
[Frnb As op Cs]
+17.4 +17.4 100 +18 +18 1020.5 835.4 3
С 1 10 км 8/6 400 м
[Cu Sc Ac trans Cs]
+20.8 +17.8 83 +26 +30 душно 1022.5 835.7 +17.2 5
СВ 2 10 км 6/5 600 м
[Cu Sc Ac trans Cs]
+25.6 +17.5 61 +30 +39 душно 1018.8 834.0
Ю 4 9000 м в посл. час морось 9/6 600 м
[Cu Sc Ac lent Ci ing]
+24.4 +18.9 71 +29 +31 душно 1016.1 831.8
СЗ 2 7000 м слаб. дождь 9/6 400 м
[Cu Sc Ac lent Ci ing]
+19.5 +18.2 92 +23 +23 комфорт 1018.7 833.9 1
ЮВ 3 3000 м в посл. час морось 10/6 120 м
[Frnb As op Cs]
+17.9 +17.6 98 +18 +18 1021.5 836.2 +28.0 0.0
Ю 1 2000 м дымка {дождь} 10/6 90 м
[Frnb As op]
+17.5 +17.3 99 +19 +19 1020.9 835.7 0.4
Ю 1 2000 м дымка 10/8 60 м
[Frnb As op]
+17.0 +17.0 100 +18 +18 1019.1 834.2 0.4
СВ 2 6000 м 9/6 300 м
[Cu Sc Ac trans Ci fib]
+20.8 +16.5 76 +25 +28 комфорт 1021.3 836.0 +15.8 1
В 2 10 км 10/8 600 м
[Cu Sc Ac trans Ci fib]
+25.7 +17.0 59 +30 +32 душно 1018.0 833.3
З 2 10 км осадки на расстоянии 10/6 500 м
[Cu Sc Ac trans Cs]
+24.6 +17.9 66 +29 +31 душно 1016.0 831.7
ЮВ 7 9000 м слаб. дождь {морось} 10/6
[Cu Sc Ac trans Cs]
+18.5 +17.3 93 +19 +19 1018.1 833.4 0.0
Ю 3 5000 м в посл. час морось 9/6 180 м
[Cu Sc As op Cs]
+18.3 +17.2 93 +19 +19 1020.2 835.1 +27.4 0.0
Ю 4 4000 м дымка 10/8 150 м
[Frnb As op Cs]
+17.8 +17.2 96 +18 +18 1020.1 835.0
Ю 2 3000 м дымка 10/8 120 м
[Frnb As op Cs]
+16.8 +16.6 99 +17 +17 1018.8 834.0
В 2 10 км 6/5 600 м
[Cu Sc Ac trans]
+22.6 +17.4 72 +27 +33 душно 1021.5 836.2 +16.6 0.0
С 2 10 км 5/5 600 м
[Cu Sc Ac trans Ci fib]
+26.4 +15.3 50 +29 +41 жарко 1017.4 832.8
ЮВ 4 10 км осадки на расстоянии {морось} 9/6 540 м
[Cu Sc Ac As Ci fib]
+23.9 +17.5 67 +28 +29 душно 1015.3 831.1 0.4
ЮВ 7 4000 м дождь 10/8 450 м
[Cu Sc As op Cs]
+18.8 +17.0 89 +19 +19 1017.2 832.7 2
СВ 1 1000 м дождь 10/9 30 м
[Frnb As op Cs]
+17.3 +17.3 100 +18 +18 1020.8 835.6 +26.6 10
Ю 2 1000 м в посл. час дождь 10/9 30 м
[Frnb As op Cs]
+17.2 +17.2 100 +17 +17 1020.7 835.5 8
Ю 2 1000 м дымка 10/8 30 м
[Frnb As op Cs]
+16.7 +16.7 100 +17 +17 1019.0 834.1 7
штиль 0 10 км 8/6 450 м
[Cu Sc Ac trans Ci fib]
+20.3 +16.6 79 +23 +28 комфорт 1021.9 836.5 +16.0 27
ЮВ 5 10 км 6/5 600 м
[Cu Sc Ac trans Ci fib]
+26.4 +17.6 58 +31 +36 душно 1018.0 833.3
Ю 5 10 км в посл. час дождь 9/8 600 м
[Cu Sc Ac As Cs]
+23.1 +18.3 74 +29 +30 очень
душно
1016.4 832.0 0.0
ЮВ 5 10 км осадки на расстоянии 10/6 540 м
[Cu Sc As op Cs]
+19.7 +17.5 87 +22 +22 комфорт 1018.1 833.4 0.0
штиль 0 3000 м слаб. дождь 10/9 270 м
[Frnb As op Cs]
+18.1 +18.1 100 +18 +18 1022.0 836.6 +27.1 7
Местоположение метеостанции Вамена (Индонезия): широта -4.07 долгота 138.95 высота над уровнем моря 1660 м.
В архиве по умолчанию представлена погода в Вамене за последнюю неделю. Архивные данные за месяц целиком и за предыдущие месяцы, начиная с января 2011 года, Вы можете получить, выбрав интересующий диапазон дат из раскрывающегося списка и нажав кнопку "Найти!".
*Определитесь, кто Вы:
Внимание! Время в таблицах - всемирное. Для получения местного времени необходимо прибавить поправку, которая равна 9 ч.
Смотрите также архив погоды в соседних городах и на ближайших метеорологических станциях:
Партнеры нашего сайта:      
Пояснения к столбцам:
  • Ветер - указаны скорость ветра в м/с - средняя за 10 мин, порывы в срок и между сроками (в фигурных скобках) и направление, откуда дует ветер: С - северный,
  • СВ - северо-восточный, В - восточный, ЮВ - юго-восточный, Ю - южный, ЮЗ - юго-западный, З - западный, СЗ - северо-западный.
  • Видимость - горизонтальная дальность видимости в метрах или километрах. При видимости от 1 до 10 км при отсутствии осадков обычно наблюдается дымка, при ухудшении видимости до 1 км и менее - туман. В сухую погоду видимость может ухудшаться дымом, пылью или мглою.
  • Явления - указаны атмосферные явления, наблюдавшиеся в срок или в последний час перед сроком; фигурными скобками обозначены явления, наблюдавшиеся между сроками (за 1-3 часа до срока); квадратными скобками обозначены град или гололедные отложения с указанием их диаметра в мм.
  • Облачность - указаны через наклонную черту общая и нижняя облачность в баллах и высота нижней границы облаков в метрах; квадратными скобками обозначены формы облаков: Ci - перистые, Cs - перисто-слоистые, Cc - перисто-кучевые, Ac - высококучевые, As - высокослоистые, Sc - слоисто-кучевые, Ns - слоисто-дождевые, Cu - кучевые, Cb - кучево-дождевые. Подробнее классификацию облаков см. в Атласе облаков (PDF).
  • T - Температура воздуха - температура, измеренная на высоте 2 м над землей.
  • Td - Температура точки росы - температура, при понижении до которой содержащийся в воздухе водяной пар достигнет насыщения.
  • f - Относительная влажность воздуха - влажноcть воздуха, измеренная на высоте 2 м над землей.
  • Te - Эффективная температура - температура, которую ощущает одетый по сезону человек в тени. Характеристика душности погоды. При расчете учитывается влияние влажности воздуха и скорости ветра на теплоощущения человека.
  • Tes - Эффективная температура на солнце - температура, которую ощущает человек, с поправкой на солнечный нагрев. Характеристика знойности погоды. Зависит от высоты солнца над горизонтом, облачности и скорости ветра. Ночью, в пасмурную погоду, а также при ветре 12 м/с и более поправка равна нулю.
  • P - Атмосферное давление - приведенное к уровню моря атмосферное давление.
  • Po - Атмосферное давление - измеренное на уровне метеостанции атмосферное давление.
  • Tmin - Минимальная температура - минимум температуры воздуха на высоте 2 м над землей.
  • Tmax - Максимальная температура - максимум температуры воздуха на высоте 2 м над землей.
  • R - Количество осадков - Количество выпавших осадков за период времени, мм. При наведении курсора мыши на число - период времени, за который выпало указанное количество осадков.
  • R24 - Количество осадков - Количество выпавших осадков за 24 часа, мм.
  • S - Снежный покров - Высота снежного покрова, см. При наведении курсора мыши на число - состояние снежного покрова и степень покрытия местности в баллах.